TimeEDT,TemperatureF,Dew PointF,Humidity,Sea Level PressureIn,VisibilityMPH,Wind Direction,Wind SpeedMPH,Gust SpeedMPH,PrecipitationIn,Events,Conditions,WindDirDegrees,DateUTC
12:15 AM,34.5,34.5,100,29.53,2.0,ENE,8.1,-,N/A,Snow,Light Snow,70,2013-03-25 04:15:00
12:35 AM,34.2,34.2,100,29.51,4.0,ENE,9.2,-,N/A,Snow,Light Snow,60,2013-03-25 04:35:00
12:55 AM,34.2,34.2,100,29.51,5.0,ENE,8.1,-,N/A,Snow,Light Snow,60,2013-03-25 04:55:00
1:15 AM,34.0,34.0,100,29.49,2.5,ENE,8.1,-,N/A,Snow,Light Snow,60,2013-03-25 05:15:00
1:35 AM,34.2,34.2,100,29.49,5.0,ENE,5.8,-,0.01,Snow,Light Snow,60,2013-03-25 05:35:00
1:55 AM,34.2,34.2,100,29.50,2.0,ENE,4.6,-,0.01,Snow,Light Snow,60,2013-03-25 05:55:00
2:15 AM,34.0,34.0,100,29.51,1.8,ENE,3.5,-,N/A,Snow,Light Snow,60,2013-03-25 06:15:00
2:35 AM,34.2,34.2,100,29.52,2.5,ENE,3.5,-,N/A,Snow,Light Snow,60,2013-03-25 06:35:00
2:55 AM,35.2,35.2,100,29.51,10.0,West,8.1,-,N/A,,Overcast,270,2013-03-25 06:55:00
3:15 AM,35.8,35.6,99,29.50,4.0,West,10.4,-,N/A,Snow,Light Snow,260,2013-03-25 07:15:00
3:35 AM,35.6,35.6,100,29.49,10.0,West,10.4,-,N/A,,Overcast,260,2013-03-25 07:35:00
3:55 AM,36.5,33.6,89,29.49,10.0,WSW,19.6,24.2,0.01,,Overcast,250,2013-03-25 07:55:00
4:15 AM,36.5,33.1,87,29.47,10.0,West,20.7,26.5,0.02,,Overcast,270,2013-03-25 08:15:00
4:35 AM,36.5,32.7,86,29.48,10.0,West,16.1,26.5,0.03,,Overcast,260,2013-03-25 08:35:00
4:55 AM,36.1,33.1,89,29.48,10.0,WSW,16.1,25.3,0.03,Snow,Light Snow,240,2013-03-25 08:55:00
5:15 AM,35.1,32.0,89,29.48,7.0,WSW,20.7,31.1,0.01,Snow,Light Snow,250,2013-03-25 09:15:00
5:35 AM,34.3,32.7,94,29.48,2.5,West,23.0,29.9,0.01,Snow,Light Snow,260,2013-03-25 09:35:00
5:55 AM,33.8,32.4,94,29.48,4.0,West,20.7,27.6,0.01,Snow,Light Snow,260,2013-03-25 09:55:00
6:15 AM,33.8,32.4,94,29.49,2.5,WSW,23.0,29.9,N/A,Snow,Light Snow,250,2013-03-25 10:15:00
6:35 AM,32.2,29.7,90,29.48,2.5,West,26.5,35.7,N/A,Snow,Light Snow,260,2013-03-25 10:35:00
6:55 AM,32.0,29.3,90,29.49,5.0,WSW,23.0,29.9,N/A,,Overcast,250,2013-03-25 10:55:00
7:15 AM,32.0,27.9,85,29.49,7.0,WSW,20.7,28.8,N/A,Snow,Light Snow,250,2013-03-25 11:15:00
7:35 AM,31.8,26.4,80,29.50,2.0,WSW,26.5,38.0,N/A,Snow,Light Snow,250,2013-03-25 11:35:00
7:55 AM,31.6,25.9,79,29.50,7.0,West,23.0,31.1,N/A,,Overcast,260,2013-03-25 11:55:00
8:15 AM,31.6,26.8,82,29.51,2.5,West,21.9,33.4,N/A,Snow,Light Snow,260,2013-03-25 12:15:00
8:35 AM,32.0,27.5,83,29.52,2.0,WSW,21.9,28.8,N/A,Snow,Light Snow,250,2013-03-25 12:35:00
8:55 AM,31.1,29.3,93,29.51,0.8,West,20.7,32.2,N/A,Snow,Light Snow,260,2013-03-25 12:55:00
9:15 AM,31.6,29.8,93,29.51,0.5,West,19.6,27.6,N/A,Snow,Light Snow,260,2013-03-25 13:15:00
9:35 AM,31.6,28.4,88,29.51,1.0,West,25.3,35.7,N/A,Snow,Light Snow,260,2013-03-25 13:35:00
9:55 AM,31.8,29.1,90,29.51,1.0,West,28.8,35.7,N/A,Snow,Light Snow,260,2013-03-25 13:55:00
10:15 AM,32.2,27.9,84,29.51,1.0,WSW,27.6,34.5,N/A,Snow,Light Snow,250,2013-03-25 14:15:00
10:35 AM,32.7,26.6,78,29.52,1.8,West,26.5,40.3,N/A,,Haze,260,2013-03-25 14:35:00
10:55 AM,32.4,27.1,81,29.53,4.0,West,21.9,31.1,N/A,Snow,Light Snow,260,2013-03-25 14:55:00
11:15 AM,32.0,28.8,88,29.54,0.8,West,19.6,31.1,N/A,Snow,Light Snow,270,2013-03-25 15:15:00
11:35 AM,32.0,30.2,93,29.55,0.2,West,23.0,27.6,N/A,Snow,Light Snow,260,2013-03-25 15:35:00
11:55 AM,32.9,28.6,84,29.55,1.8,West,23.0,29.9,N/A,Snow,Light Snow,260,2013-03-25 15:55:00
12:15 PM,32.0,30.0,92,29.56,0.2,West,20.7,29.9,N/A,Snow,Light Snow,260,2013-03-25 16:15:00
12:35 PM,33.1,30.0,89,29.56,0.8,West,23.0,27.6,N/A,Snow,Light Snow,260,2013-03-25 16:35:00
12:55 PM,33.1,30.6,90,29.56,0.2,West,17.3,29.9,N/A,Snow,Light Snow,260,2013-03-25 16:55:00
1:15 PM,32.9,28.8,85,29.57,0.8,WSW,26.5,38.0,N/A,Snow,Light Snow,250,2013-03-25 17:15:00
1:35 PM,32.9,30.2,90,29.57,0.5,West,25.3,32.2,N/A,Snow,Light Snow,260,2013-03-25 17:35:00
1:55 PM,33.3,30.0,88,29.57,1.0,West,25.3,33.4,N/A,Snow,Light Snow,260,2013-03-25 17:55:00
2:15 PM,33.3,28.4,82,29.57,1.5,West,25.3,32.2,N/A,Snow,Light Snow,260,2013-03-25 18:15:00
2:35 PM,33.4,29.5,85,29.57,0.5,West,25.3,33.4,N/A,Snow,Light Snow,260,2013-03-25 18:35:00
2:55 PM,34.2,27.9,78,29.57,1.0,West,28.8,35.7,N/A,Snow,Light Snow,260,2013-03-25 18:55:00
3:15 PM,35.4,25.7,68,29.57,10.0,West,27.6,35.7,N/A,,Overcast,260,2013-03-25 19:15:00
3:35 PM,32.9,29.5,87,29.57,0.2,West,26.5,35.7,N/A,Snow,Light Snow,280,2013-03-25 19:35:00
3:55 PM,34.9,26.8,72,29.57,3.0,West,31.1,44.9,N/A,,Haze,280,2013-03-25 19:55:00
4:15 PM,35.4,26.4,70,29.57,10.0,West,31.1,36.8,N/A,,Overcast,270,2013-03-25 20:15:00
4:35 PM,34.9,26.1,70,29.59,10.0,West,26.5,36.8,N/A,,Overcast,270,2013-03-25 20:35:00
4:55 PM,32.4,28.4,85,29.61,0.2,West,23.0,35.7,N/A,Snow,Snow,280,2013-03-25 20:55:00
5:15 PM,33.1,27.7,81,29.61,1.8,West,28.8,36.8,N/A,Snow,Light Snow,270,2013-03-25 21:15:00
5:35 PM,33.8,25.5,72,29.62,3.0,West,24.2,33.4,N/A,,Haze,270,2013-03-25 21:35:00
5:55 PM,34.0,25.3,71,29.63,5.0,West,31.1,40.3,N/A,,Haze,270,2013-03-25 21:55:00
6:15 PM,33.1,26.2,76,29.66,2.5,West,17.3,28.8,N/A,Snow,Light Snow,280,2013-03-25 22:15:00
6:35 PM,32.0,26.2,79,29.67,3.0,West,23.0,29.9,N/A,Snow,Light Snow,280,2013-03-25 22:35:00
6:55 PM,32.0,26.6,80,29.68,0.8,West,18.4,35.7,N/A,Snow,Light Snow,280,2013-03-25 22:55:00
7:15 PM,32.4,24.4,73,29.69,10.0,West,19.6,32.2,N/A,,Overcast,270,2013-03-25 23:15:00
7:35 PM,32.2,25.5,76,29.71,10.0,West,15.0,26.5,N/A,Snow,Light Snow,260,2013-03-25 23:35:00
7:55 PM,31.8,26.8,82,29.72,5.0,West,19.6,27.6,N/A,Snow,Light Snow,270,2013-03-25 23:55:00
8:15 PM,31.1,27.7,87,29.73,1.2,West,17.3,24.2,N/A,Snow,Light Snow,280,2013-03-26 00:15:00
8:35 PM,30.7,29.7,96,29.73,0.5,West,20.7,27.6,N/A,Snow,Snow,280,2013-03-26 00:35:00
8:55 PM,30.7,29.1,94,29.74,1.0,West,24.2,31.1,N/A,Snow,Light Snow,270,2013-03-26 00:55:00
9:15 PM,31.8,25.5,78,29.76,7.0,West,18.4,26.5,N/A,Snow,Light Snow,270,2013-03-26 01:15:00
9:35 PM,31.1,26.2,82,29.77,7.0,West,23.0,29.9,N/A,Snow,Light Snow,280,2013-03-26 01:35:00
9:55 PM,30.9,27.9,88,29.78,1.2,West,15.0,24.2,N/A,Snow,Light Snow,260,2013-03-26 01:55:00
10:15 PM,30.7,27.3,87,29.78,0.8,West,19.6,29.9,N/A,Snow,Light Snow,270,2013-03-26 02:15:00
10:35 PM,30.9,27.3,86,29.79,1.8,West,17.3,-,N/A,Snow,Light Snow,260,2013-03-26 02:35:00
10:55 PM,30.9,26.6,84,29.79,4.0,West,17.3,21.9,N/A,Snow,Light Snow,270,2013-03-26 02:55:00
11:15 PM,31.5,25.0,77,29.80,7.0,West,20.7,27.6,N/A,Snow,Light Snow,270,2013-03-26 03:15:00
11:35 PM,31.5,25.5,79,29.80,7.0,WSW,18.4,27.6,N/A,Snow,Light Snow,250,2013-03-26 03:35:00
11:55 PM,31.8,24.8,75,29.80,7.0,West,20.7,29.9,N/A,,Overcast,260,2013-03-26 03:55:00